Notices

What's New in latest Release from April 7th, 2021:

- Updated Glossary, including Speed of Maximum Gust, and Total Hourly Precipitation

- Updated national and regional climate services offices contacts and prices information

- Addition of station inventory lists for 1981-2010, 1971-2000, and 1961-1990 Normals.

If you haven't already, please take our survey and provide feedback about our website: https://eccc.sondage-survey.ca/f/LanguageSelection.aspx?s=442ca660-fcf1-47c0-95a9-59707d6fd709

Hourly Data Report for June 21, 2004

SHERBROOKE A
QUEBEC

45°26'00.000" N
71°41'00.000" W
241.40 m
7028124
71610
YSC

Download Data

Hourly Data (June 2004)
Hourly Data Report for June 21, 2004
TIME
LST
Temp Definition
°C
Dew Point Definition
°C
Rel Hum Definition
%
Precip. Amount Definition
mm

Wind Dir Definition
10's deg

Wind Spd Definition
km/h
Visibility Definition
km
Stn Press Definition
kPa
Hmdx Definition


Wind Chill Definition


Weather Definition


00:00 13.5 6.5 63   25 7 15.0 98.15      
01:00 13.2 6.4 63   25 7 15.0 98.16      
02:00 11.1 5.9 70   22 9 15.0 98.17      
03:00 10.7 5.8 72   22 11 15.0 98.18      
04:00 10.3 5.6 73   23 6 15.0 98.22      
05:00 10.0 6.3 78   18 6 15.0 98.24      
06:00 13.2 7.5 68   21 11 15.0 98.27      
07:00 16.0 8.8 62   25 11 24.1 98.27     Mainly Clear
08:00 17.0 8.4 57   26 19 24.1 98.24     Mainly Clear
09:00 18.7 9.4 55   28 24 24.1 98.20     Mainly Clear
10:00 19.7 9.8 53   28 19 24.1 98.15     Mainly Clear
11:00 20.5 9.8 50   25 22 24.1 98.13     Mainly Clear
12:00 21.2 10.4 50   26 22 24.1 98.13     Mainly Clear
13:00 21.2 9.1 46   25 20 24.1 98.10     Mostly Cloudy
14:00 21.6 10.1 48   26 17 24.1 98.10     Mostly Cloudy
15:00 22.5 9.8 44   27 22 24.1 98.07     Mostly Cloudy
16:00 21.3 9.8 48   27 17 24.1 98.05     Mainly Clear
17:00 21.2 8.5 44   27 22 15.0 98.00      
18:00 20.5 8.0 44   25 17 15.0 98.03      
19:00 18.2 7.0 48   26 13 15.0 98.07      
20:00 16.3 7.1 54   23 11 15.0 98.10      
21:00 14.8 7.2 60   23 7 15.0 98.15      
22:00 13.2 7.6 69   20 6 15.0 98.13      
23:00 10.7 8.0 83     0 15.0 98.14      

Notes on Data Quality.

Legend

  • E = Estimated
  • M = Missing
  • NA = Not Available*
  • [empty] = Indicates an unobserved value
Date modified: